| time (UTC) | temp F | wind direction | speed MPH | gust MPH | rain 1hr in | rain 24hr in | rain mn in | humidity % | barometer mb |
| 20260506061803 | 61 | 3 | 0.0 | 0.0 | 0.00 | 0.46 | 0.46 | 50 | 1013.8 |
| 20260506061302 | 61 | 3 | 0.0 | 0.0 | 0.00 | 0.46 | 0.46 | 48 | 1013.8 |
| 20260506060802 | 61 | 3 | 0.0 | 1.0 | 0.00 | 0.46 | 0.46 | 46 | 1013.6 |
| 20260506051301 | 63 | 2 | 0.0 | 1.0 | 0.00 | 0.46 | 0.46 | 40 | 1013.0 |
| 20260506050801 | 64 | 345 | 0.0 | 1.0 | 0.00 | 0.46 | 0.46 | 40 | 1013.1 |
| 20260506044800 | 64 | 340 | 0.0 | 1.0 | 0.00 | 0.46 | 0.46 | 38 | 1012.8 |
| 20260506044300 | 65 | 340 | 0.0 | 0.0 | 0.00 | 0.46 | 0.46 | 39 | 1013.0 |
| 20260506043259 | 65 | 356 | 0.0 | 1.0 | 0.00 | 0.46 | 0.46 | 37 | 1012.8 |
| 20260506042259 | 66 | 326 | 0.0 | 1.0 | 0.00 | 0.46 | 0.46 | 38 | 1012.8 |
| 20260506041759 | 66 | 326 | 0.0 | 1.0 | 0.00 | 0.46 | 0.46 | 34 | 1012.6 |
| 20260506041259 | 67 | 300 | 0.0 | 1.0 | 0.00 | 0.46 | 0.46 | 35 | 1012.7 |
| 20260506040759 | 67 | 292 | 0.0 | 4.0 | 0.00 | 0.46 | 0.46 | 34 | 1012.6 |
| 20260506040259 | 68 | 292 | 0.0 | 4.0 | 0.00 | 0.46 | 0.46 | 32 | 1012.6 |
| 20260506033758 | 69 | 306 | 3.0 | 5.0 | 0.00 | 0.46 | 0.46 | 32 | 1012.3 |
| 20260506032758 | 69 | 290 | 2.0 | 6.0 | 0.00 | 0.46 | 0.46 | 32 | 1012.1 |
| 20260506032258 | 69 | 304 | 0.0 | 6.0 | 0.00 | 0.46 | 0.46 | 32 | 1012.1 |
| 20260506031757 | 70 | 316 | 2.0 | 6.0 | 0.00 | 0.46 | 0.46 | 31 | 1011.9 |
| 20260506031258 | 70 | 298 | 0.0 | 7.0 | 0.00 | 0.46 | 0.46 | 31 | 1011.8 |
| 20260506030757 | 70 | 289 | 0.0 | 7.0 | 0.00 | 0.46 | 0.46 | 31 | 1011.8 |
| 20260506030257 | 70 | 333 | 3.0 | 6.0 | 0.00 | 0.46 | 0.46 | 30 | 1011.8 |
| 20260506025757 | 70 | 300 | 2.0 | 6.0 | 0.00 | 0.46 | 0.46 | 30 | 1011.7 |
| 20260506024757 | 70 | 281 | 1.0 | 6.0 | 0.00 | 0.46 | 0.46 | 30 | 1011.5 |
| 20260506024256 | 71 | 303 | 4.0 | 6.0 | 0.00 | 0.46 | 0.46 | 29 | 1011.4 |
| 20260506023757 | 71 | 289 | 3.0 | 9.0 | 0.00 | 0.46 | 0.46 | 29 | 1011.3 |
| 20260506023256 | 71 | 279 | 4.0 | 9.0 | 0.00 | 0.46 | 0.46 | 30 | 1011.3 |
| 20260506022756 | 71 | 278 | 4.0 | 9.0 | 0.00 | 0.46 | 0.46 | 29 | 1011.2 |
| 20260506022256 | 71 | 289 | 0.0 | 7.0 | 0.00 | 0.46 | 0.46 | 30 | 1011.0 |
| 20260506021256 | 71 | 273 | 2.0 | 8.0 | 0.00 | 0.46 | 0.46 | 29 | 1010.8 |
| 20260506020756 | 71 | 250 | 4.0 | 7.0 | 0.00 | 0.46 | 0.46 | 29 | 1010.8 |
| 20260506020255 | 72 | 328 | 2.0 | 8.0 | 0.00 | 0.46 | 0.46 | 29 | 1010.8 |
| 20260506015755 | 72 | 257 | 6.0 | 8.0 | 0.00 | 0.46 | 0.46 | 29 | 1010.7 |
| 20260506014755 | 72 | 272 | 1.0 | 8.0 | 0.00 | 0.46 | 0.46 | 30 | 1010.5 |
| 20260506014255 | 72 | 287 | 3.0 | 8.0 | 0.00 | 0.46 | 0.46 | 29 | 1010.6 |
| 20260506013755 | 72 | 285 | 2.0 | 9.0 | 0.00 | 0.46 | 0.46 | 30 | 1010.4 |
| 20260506012754 | 72 | 290 | 2.0 | 8.0 | 0.00 | 0.46 | 0.46 | 30 | 1010.4 |
| 20260506012254 | 72 | 248 | 1.0 | 8.0 | 0.00 | 0.46 | 0.46 | 29 | 1010.3 |
| 20260506011754 | 72 | 269 | 0.0 | 9.0 | 0.00 | 0.46 | 0.46 | 31 | 1010.4 |
| 20260506010754 | 72 | 356 | 4.0 | 6.0 | 0.00 | 0.46 | 0.46 | 29 | 1010.4 |
| 20260506010253 | 73 | 291 | 2.0 | 10.0 | 0.00 | 0.46 | 0.46 | 28 | 1010.4 |
| 20260506005753 | 73 | 277 | 3.0 | 10.0 | 0.00 | 0.46 | 0.46 | 28 | 1010.3 |
| 20260506005254 | 73 | 239 | 4.0 | 5.0 | 0.00 | 0.46 | 0.46 | 29 | 1010.3 |
| 20260506004753 | 73 | 308 | 1.0 | 6.0 | 0.00 | 0.46 | 0.46 | 29 | 1010.2 |
| 20260506004253 | 73 | 292 | 5.0 | 8.0 | 0.00 | 0.46 | 0.46 | 28 | 1010.2 |
| 20260506003753 | 73 | 297 | 5.0 | 8.0 | 0.00 | 0.46 | 0.46 | 28 | 1010.2 |
| 20260506003253 | 74 | 283 | 4.0 | 7.0 | 0.00 | 0.46 | 0.46 | 28 | 1010.2 |
| 20260506002753 | 75 | 286 | 4.0 | 9.0 | 0.00 | 0.46 | 0.46 | 27 | 1010.2 |
| 20260506002252 | 75 | 240 | 4.0 | 9.0 | 0.00 | 0.46 | 0.46 | 28 | 1010.1 |
| 20260506001752 | 75 | 285 | 2.0 | 8.0 | 0.00 | 0.46 | 0.46 | 27 | 1010.2 |
| 20260506001252 | 75 | 302 | 6.0 | 8.0 | 0.00 | 0.46 | 0.46 | 28 | 1010.1 |
| 20260506000752 | 75 | 184 | 1.0 | 10.0 | 0.00 | 0.46 | 0.46 | 28 | 1010.1 |
| 20260505235752 | 76 | 292 | 5.0 | 7.0 | 0.00 | 0.46 | 0.46 | 27 | 1010.0 |
| 20260505235251 | 76 | 278 | 3.0 | 12.0 | 0.00 | 0.46 | 0.46 | 27 | 1009.9 |
| 20260505234752 | 76 | 283 | 3.0 | 13.0 | 0.00 | 0.46 | 0.46 | 28 | 1009.9 |
| 20260505234251 | 76 | 289 | 12.0 | 13.0 | 0.00 | 0.46 | 0.46 | 28 | 1009.8 |
| 20260505233751 | 76 | 276 | 5.0 | 11.0 | 0.00 | 0.46 | 0.46 | 27 | 1009.8 |
| 20260505233251 | 76 | 258 | 1.0 | 11.0 | 0.00 | 0.46 | 0.46 | 28 | 1009.8 |
| 20260505232751 | 77 | 286 | 5.0 | 9.0 | 0.00 | 0.46 | 0.46 | 27 | 1009.8 |
| 20260505232251 | 77 | 238 | 4.0 | 9.0 | 0.00 | 0.46 | 0.46 | 28 | 1009.9 |
| 20260505231751 | 77 | 243 | 0.0 | 10.0 | 0.00 | 0.46 | 0.46 | 27 | 1009.7 |
| 20260505231251 | 76 | 301 | 5.0 | 12.0 | 0.00 | 0.46 | 0.46 | 28 | 1009.8 |
| 20260505230751 | 76 | 278 | 3.0 | 12.0 | 0.00 | 0.46 | 0.46 | 28 | 1009.7 |
| 20260505230250 | 77 | 207 | 4.0 | 6.0 | 0.00 | 0.46 | 0.46 | 29 | 1009.7 |
| 20260505225820 | 76 | 273 | 3.0 | 11.0 | 0.00 | 0.46 | 0.46 | 29 | 1009.7 |
| 20260505225250 | 76 | 120 | 3.0 | 11.0 | 0.00 | 0.46 | 0.46 | 30 | 1010.0 |
| 20260505224750 | 77 | 295 | 10.0 | 10.0 | 0.00 | 0.46 | 0.46 | 28 | 1009.9 |
| 20260505224250 | 77 | 285 | 3.0 | 7.0 | 0.00 | 0.46 | 0.46 | 29 | 1009.9 |
| 20260505223750 | 78 | 200 | 2.0 | 10.0 | 0.00 | 0.46 | 0.46 | 28 | 1010.0 |
| 20260505223250 | 77 | 286 | 1.0 | 10.0 | 0.00 | 0.46 | 0.46 | 30 | 1010.1 |
| 20260505222819 | 77 | 206 | 3.0 | 11.0 | 0.00 | 0.46 | 0.46 | 31 | 1010.0 |
| 20260505222249 | 77 | 242 | 2.0 | 11.0 | 0.00 | 0.46 | 0.46 | 31 | 1010.1 |
| 20260505221749 | 77 | 238 | 5.0 | 11.0 | 0.00 | 0.46 | 0.46 | 32 | 1010.2 |
| 20260505221319 | 77 | 240 | 8.0 | 11.0 | 0.00 | 0.46 | 0.46 | 31 | 1010.3 |
| 20260505220748 | 77 | 252 | 3.0 | 9.0 | 0.00 | 0.46 | 0.46 | 33 | 1010.4 |
| 20260505220319 | 76 | 295 | 0.0 | 9.0 | 0.00 | 0.46 | 0.46 | 33 | 1010.3 |
| 20260505215748 | 76 | 301 | 2.0 | 9.0 | 0.00 | 0.46 | 0.46 | 33 | 1010.4 |
| 20260505215248 | 76 | 319 | 6.0 | 9.0 | 0.00 | 0.46 | 0.46 | 33 | 1010.5 |
| 20260505214748 | 76 | 193 | 4.0 | 9.0 | 0.00 | 0.46 | 0.46 | 34 | 1010.4 |
| 20260505214248 | 76 | 290 | 5.0 | 8.0 | 0.00 | 0.46 | 0.46 | 36 | 1010.4 |
| 20260505213818 | 75 | 283 | 1.0 | 8.0 | 0.00 | 0.46 | 0.46 | 36 | 1010.5 |
| 20260505213248 | 76 | 308 | 4.0 | 7.0 | 0.00 | 0.46 | 0.46 | 36 | 1010.6 |
| 20260505212747 | 76 | 278 | 1.0 | 9.0 | 0.00 | 0.46 | 0.46 | 36 | 1010.7 |
| 20260505211747 | 76 | 220 | 6.0 | 7.0 | 0.00 | 0.46 | 0.46 | 38 | 1010.8 |
| 20260505211247 | 76 | 200 | 3.0 | 7.0 | 0.00 | 0.46 | 0.46 | 39 | 1010.9 |
| 20260505210747 | 74 | 250 | 1.0 | 9.0 | 0.00 | 0.46 | 0.46 | 40 | 1010.8 |
| 20260505210317 | 73 | 212 | 6.0 | 9.0 | 0.00 | 0.46 | 0.46 | 45 | 1010.9 |
| 20260505205817 | 73 | 214 | 1.0 | 8.0 | 0.00 | 0.46 | 0.46 | 46 | 1011.1 |
| 20260505205247 | 74 | 233 | 4.0 | 8.0 | 0.00 | 0.46 | 0.46 | 42 | 1011.1 |
| 20260505204747 | 74 | 221 | 4.0 | 9.0 | 0.00 | 0.46 | 0.46 | 40 | 1011.0 |
| 20260505204246 | 76 | 210 | 3.0 | 9.0 | 0.00 | 0.46 | 0.46 | 37 | 1011.0 |
| 20260505203746 | 76 | 210 | 3.0 | 8.0 | 0.00 | 0.46 | 0.46 | 41 | 1011.1 |
| 20260505202816 | 76 | 221 | 5.0 | 9.0 | 0.00 | 0.46 | 0.46 | 41 | 1011.1 |
| 20260505202316 | 75 | 205 | 5.0 | 8.0 | 0.00 | 0.46 | 0.46 | 40 | 1011.2 |
| 20260505201315 | 77 | 255 | 0.0 | 10.0 | 0.00 | 0.46 | 0.46 | 40 | 1011.3 |
| 20260505200815 | 76 | 240 | 2.0 | 8.0 | 0.00 | 0.46 | 0.46 | 41 | 1011.2 |
| 20260505200315 | 75 | 227 | 2.0 | 11.0 | 0.00 | 0.46 | 0.46 | 44 | 1011.3 |
| 20260505195815 | 75 | 214 | 2.0 | 11.0 | 0.00 | 0.46 | 0.46 | 42 | 1011.2 |
| 20260505195315 | 74 | 193 | 4.0 | 11.0 | 0.00 | 0.46 | 0.46 | 43 | 1011.3 |
| 20260505194814 | 73 | 244 | 3.0 | 7.0 | 0.00 | 0.46 | 0.46 | 47 | 1011.2 |
| 20260505194315 | 72 | 250 | 0.0 | 7.0 | 0.00 | 0.46 | 0.46 | 45 | 1011.3 |
| 20260505192814 | 73 | 300 | 1.0 | 8.0 | 0.00 | 0.46 | 0.46 | 45 | 1011.4 |
| 20260505192314 | 74 | 215 | 5.0 | 6.0 | 0.00 | 0.46 | 0.46 | 48 | 1011.6 |
| 20260505191814 | 72 | 238 | 2.0 | 7.0 | 0.00 | 0.46 | 0.46 | 47 | 1011.6 |
| 20260505191313 | 72 | 263 | 1.0 | 7.0 | 0.00 | 0.46 | 0.46 | 49 | 1011.7 |
| 20260505190813 | 72 | 248 | 2.0 | 6.0 | 0.00 | 0.46 | 0.46 | 47 | 1011.7 |
| 20260505185313 | 72 | 223 | 4.0 | 7.0 | 0.00 | 0.46 | 0.46 | 51 | 1012.4 |
| 20260505184813 | 72 | 297 | 1.0 | 8.0 | 0.00 | 0.46 | 0.46 | 52 | 1012.4 |
| 20260505184313 | 73 | 109 | 3.0 | 8.0 | 0.00 | 0.46 | 0.46 | 50 | 1012.3 |
| 20260505183312 | 72 | 228 | 4.0 | 8.0 | 0.01 | 0.46 | 0.46 | 54 | 1012.4 |
| 20260505182312 | 71 | 141 | 1.0 | 8.0 | 0.01 | 0.46 | 0.46 | 56 | 1012.4 |
| 20260505181312 | 69 | 187 | 5.0 | 6.0 | 0.01 | 0.46 | 0.46 | 61 | 1012.2 |
| 20260505180811 | 68 | 113 | 2.0 | 6.0 | 0.01 | 0.46 | 0.46 | 64 | 1012.3 |
| 20260505180311 | 67 | 134 | 3.0 | 4.0 | 0.01 | 0.46 | 0.46 | 67 | 1012.2 |
| 20260505175811 | 66 | 103 | 2.0 | 5.0 | 0.01 | 0.46 | 0.46 | 68 | 1012.0 |
| 20260505175312 | 65 | 205 | 1.0 | 6.0 | 0.01 | 0.46 | 0.46 | 71 | 1012.1 |
| 20260505174811 | 65 | 162 | 0.0 | 6.0 | 0.01 | 0.46 | 0.46 | 71 | 1012.1 |
| 20260505174311 | 66 | 195 | 5.0 | 6.0 | 0.01 | 0.46 | 0.46 | 72 | 1012.3 |
| 20260505173811 | 67 | 224 | 4.0 | 6.0 | 0.01 | 0.46 | 0.46 | 67 | 1012.2 |
| 20260505173310 | 68 | 213 | 2.0 | 6.0 | 0.00 | 0.45 | 0.45 | 64 | 1012.4 |
| 20260505172810 | 69 | 213 | 1.0 | 7.0 | 0.00 | 0.45 | 0.45 | 62 | 1012.3 |
| 20260505172310 | 69 | 169 | 4.0 | 7.0 | 0.00 | 0.45 | 0.45 | 61 | 1012.3 |
| 20260505171310 | 68 | 231 | 2.0 | 7.0 | 0.00 | 0.45 | 0.45 | 60 | 1012.3 |
| 20260505170810 | 68 | 203 | 2.0 | 7.0 | 0.00 | 0.45 | 0.45 | 65 | 1012.2 |
| 20260505170310 | 67 | 204 | 6.0 | 6.0 | 0.00 | 0.45 | 0.45 | 66 | 1012.2 |
| 20260505165810 | 67 | 211 | 2.0 | 6.0 | 0.00 | 0.45 | 0.45 | 66 | 1012.1 |
| 20260505164809 | 67 | 240 | 1.0 | 4.0 | 0.00 | 0.45 | 0.45 | 67 | 1012.3 |
| 20260505163809 | 66 | 227 | 0.0 | 6.0 | 0.00 | 0.45 | 0.45 | 69 | 1012.1 |
| 20260505162809 | 66 | 226 | 0.0 | 4.0 | 0.00 | 0.45 | 0.45 | 65 | 1011.9 |
| 20260505162308 | 66 | 233 | 0.0 | 4.0 | 0.00 | 0.45 | 0.45 | 65 | 1011.8 |
| 20260505161809 | 66 | 226 | 1.0 | 3.0 | 0.00 | 0.45 | 0.45 | 63 | 1011.8 |
| 20260505161308 | 67 | 292 | 1.0 | 2.0 | 0.00 | 0.45 | 0.45 | 69 | 1012.2 |
| 20260505160808 | 67 | 264 | 0.0 | 4.0 | 0.00 | 0.45 | 0.45 | 68 | 1012.1 |
| 20260505153308 | 64 | 118 | 0.0 | 3.0 | 0.00 | 0.45 | 0.45 | 75 | 1012.1 |
| 20260505152807 | 64 | 104 | 2.0 | 4.0 | 0.00 | 0.45 | 0.45 | 74 | 1012.0 |
| 20260505152307 | 64 | 133 | 3.0 | 5.0 | 0.00 | 0.45 | 0.45 | 76 | 1012.0 |
| 20260505151807 | 64 | 167 | 1.0 | 5.0 | 0.00 | 0.45 | 0.45 | 75 | 1012.0 |
| 20260505151307 | 64 | 72 | 4.0 | 4.0 | 0.00 | 0.45 | 0.45 | 75 | 1012.0 |
| 20260505150806 | 64 | 134 | 0.0 | 5.0 | 0.00 | 0.45 | 0.45 | 77 | 1011.9 |
| 20260505140304 | 61 | 89 | 1.0 | 4.0 | 0.00 | 0.45 | 0.45 | 83 | 1012.0 |
| 20260505130303 | 61 | 97 | 2.0 | 3.0 | 0.00 | 0.45 | 0.45 | 83 | 1011.3 |
| 20260505124802 | 61 | 121 | 2.0 | 6.0 | 0.00 | 0.45 | 0.45 | 82 | 1011.2 |
| 20260505124302 | 61 | 119 | 2.0 | 4.0 | 0.00 | 0.45 | 0.45 | 83 | 1011.2 |
| 20260505123802 | 61 | 127 | 0.0 | 4.0 | 0.00 | 0.45 | 0.45 | 84 | 1011.1 |
| 20260505123302 | 61 | 128 | 0.0 | 5.0 | 0.00 | 0.45 | 0.45 | 84 | 1011.1 |
| 20260505122802 | 61 | 101 | 3.0 | 5.0 | 0.00 | 0.45 | 0.45 | 85 | 1011.0 |
| 20260505122305 | 60 | 154 | 2.0 | 4.0 | 0.00 | 0.45 | 0.45 | 85 | 1011.1 |
| 20260505121802 | 60 | 96 | 0.0 | 4.0 | 0.00 | 0.45 | 0.45 | 85 | 1011.1 |
| 20260505121302 | 60 | 93 | 2.0 | 4.0 | 0.00 | 0.45 | 0.45 | 85 | 1011.1 |
| 20260505120301 | 60 | 105 | 2.0 | 3.0 | 0.00 | 0.45 | 0.45 | 84 | 1011.0 |
| 20260505115801 | 60 | 102 | 1.0 | 3.0 | 0.00 | 0.45 | 0.45 | 85 | 1010.8 |
| 20260505115301 | 60 | 120 | 0.0 | 3.0 | 0.00 | 0.45 | 0.45 | 85 | 1010.9 |
| 20260505114801 | 60 | 142 | 1.0 | 6.0 | 0.00 | 0.45 | 0.45 | 84 | 1010.9 |
| 20260505114301 | 60 | 112 | 1.0 | 8.0 | 0.00 | 0.45 | 0.45 | 83 | 1011.0 |
| 20260505113801 | 60 | 87 | 5.0 | 8.0 | 0.00 | 0.45 | 0.45 | 84 | 1011.0 |
| 20260505113300 | 60 | 115 | 2.0 | 7.0 | 0.00 | 0.45 | 0.45 | 84 | 1011.0 |
| 20260505112800 | 60 | 134 | 2.0 | 7.0 | 0.00 | 0.45 | 0.45 | 85 | 1011.1 |
| 20260505112300 | 60 | 108 | 4.0 | 7.0 | 0.00 | 0.45 | 0.45 | 85 | 1011.1 |
| 20260505111800 | 60 | 163 | 4.0 | 6.0 | 0.00 | 0.45 | 0.45 | 86 | 1011.3 |
| 20260505110800 | 60 | 107 | 3.0 | 6.0 | 0.00 | 0.45 | 0.45 | 86 | 1011.1 |
| 20260505110300 | 60 | 94 | 2.0 | 10.0 | 0.00 | 0.45 | 0.45 | 86 | 1011.3 |
| 20260505101758 | 60 | 134 | 3.0 | 6.0 | 0.01 | 0.45 | 0.45 | 86 | 1012.1 |
| 20260505101258 | 60 | 94 | 3.0 | 6.0 | 0.01 | 0.45 | 0.45 | 85 | 1012.2 |
| 20260505100757 | 60 | 101 | 1.0 | 7.0 | 0.01 | 0.45 | 0.45 | 85 | 1012.2 |
| 20260505100257 | 60 | 106 | 4.0 | 7.0 | 0.01 | 0.45 | 0.45 | 85 | 1012.2 |
| 20260505095758 | 60 | 100 | 2.0 | 6.0 | 0.00 | 0.44 | 0.44 | 85 | 1012.2 |
| 20260505095258 | 60 | 105 | 2.0 | 7.0 | 0.00 | 0.44 | 0.44 | 85 | 1012.2 |
| 20260505094757 | 60 | 105 | 3.0 | 7.0 | 0.00 | 0.44 | 0.44 | 85 | 1012.2 |
| 20260505094257 | 60 | 109 | 3.0 | 6.0 | 0.00 | 0.44 | 0.44 | 85 | 1012.1 |
| 20260505093757 | 60 | 98 | 4.0 | 6.0 | 0.01 | 0.44 | 0.44 | 85 | 1012.2 |
| 20260505093256 | 60 | 99 | 1.0 | 6.0 | 0.03 | 0.44 | 0.44 | 86 | 1012.3 |
| 20260505092256 | 60 | 70 | 4.0 | 4.0 | 0.08 | 0.44 | 0.44 | 87 | 1012.5 |
| 20260505091756 | 60 | 88 | 3.0 | 4.0 | 0.14 | 0.44 | 0.44 | 87 | 1012.5 |
| 20260505091256 | 60 | 101 | 1.0 | 5.0 | 0.20 | 0.44 | 0.44 | 87 | 1012.7 |
| 20260505090756 | 59 | 83 | 2.0 | 5.0 | 0.24 | 0.44 | 0.44 | 87 | 1012.6 |
| 20260505085755 | 59 | 112 | 1.0 | 3.0 | 0.27 | 0.44 | 0.44 | 87 | 1012.7 |
| 20260505084755 | 59 | 147 | 2.0 | 6.0 | 0.31 | 0.44 | 0.44 | 88 | 1013.1 |
| 20260505084255 | 59 | 114 | 2.0 | 6.0 | 0.35 | 0.44 | 0.44 | 88 | 1013.0 |
| 20260505083755 | 59 | 122 | 2.0 | 6.0 | 0.36 | 0.43 | 0.43 | 88 | 1013.1 |
| 20260505083255 | 58 | 101 | 5.0 | 5.0 | 0.36 | 0.41 | 0.41 | 88 | 1013.3 |
| 20260505082754 | 59 | 131 | 2.0 | 6.0 | 0.35 | 0.38 | 0.38 | 87 | 1013.6 |
| 20260505082254 | 59 | 124 | 0.0 | 7.0 | 0.34 | 0.36 | 0.36 | 86 | 1013.5 |
| 20260505081255 | 59 | 179 | 2.0 | 9.0 | 0.24 | 0.24 | 0.24 | 84 | 1013.7 |
| 20260505080254 | 60 | 127 | 3.0 | 8.0 | 0.19 | 0.19 | 0.19 | 82 | 1013.6 |
| 20260505075754 | 60 | 133 | 4.0 | 8.0 | 0.17 | 0.17 | 0.17 | 82 | 1013.7 |
| 20260505075254 | 60 | 152 | 1.0 | 7.0 | 0.15 | 0.15 | 0.15 | 81 | 1013.6 |
| 20260505074754 | 60 | 166 | 1.0 | 7.0 | 0.13 | 0.13 | 0.13 | 79 | 1013.4 |
| 20260505074254 | 61 | 181 | 5.0 | 10.0 | 0.09 | 0.09 | 0.09 | 78 | 1013.4 |
| 20260505073753 | 61 | 144 | 1.0 | 10.0 | 0.07 | 0.07 | 0.07 | 75 | 1013.3 |
| 20260505073253 | 62 | 93 | 5.0 | 9.0 | 0.05 | 0.05 | 0.05 | 73 | 1013.4 |
| 20260505072753 | 63 | 142 | 3.0 | 13.0 | 0.03 | 0.03 | 0.03 | 70 | 1013.4 |
| 20260505072253 | 64 | 141 | 8.0 | 13.0 | 0.02 | 0.02 | 0.02 | 64 | 1013.4 |
| 20260505071753 | 66 | 161 | 1.0 | 11.0 | 0.00 | 0.00 | 0.00 | 57 | 1013.5 |
| 20260505071252 | 66 | 150 | 4.0 | 11.0 | 0.00 | 0.00 | 0.00 | 53 | 1013.5 |
| 20260505070252 | 67 | 126 | 4.0 | 10.0 | 0.00 | 0.00 | 0.00 | 51 | 1013.4 |